Year,Month,Day,Hour,Minute,Value (Times are PST for temperature in C)
2009,07,29,00,00,22.60
2009,07,29,00,01,22.60
2009,07,29,00,02,22.60
2009,07,29,00,03,22.60
2009,07,29,00,04,22.60
2009,07,29,00,05,22.60
2009,07,29,00,06,22.50
2009,07,29,00,07,22.50
2009,07,29,00,08,22.50
2009,07,29,00,09,22.40
2009,07,29,00,10,22.40
2009,07,29,00,11,22.40
2009,07,29,00,12,22.40
2009,07,29,00,13,22.30
2009,07,29,00,14,22.30
2009,07,29,00,15,22.30
2009,07,29,00,16,22.30
2009,07,29,00,17,22.30
2009,07,29,00,18,22.30
2009,07,29,00,19,22.30
2009,07,29,00,20,22.30
2009,07,29,00,21,22.30
2009,07,29,00,22,22.30
2009,07,29,00,23,22.30
2009,07,29,00,24,22.30
2009,07,29,00,25,22.20
2009,07,29,00,26,22.20
2009,07,29,00,27,22.20
2009,07,29,00,28,22.20
2009,07,29,00,29,22.20
2009,07,29,00,30,22.10
2009,07,29,00,31,22.10
2009,07,29,00,32,22.10
2009,07,29,00,33,22.10
2009,07,29,00,34,22.10
2009,07,29,00,35,22.10
2009,07,29,00,36,22.10
2009,07,29,00,37,22.00
2009,07,29,00,38,22.00
2009,07,29,00,39,21.90
2009,07,29,00,40,21.90
2009,07,29,00,41,21.80
2009,07,29,00,42,21.80
2009,07,29,00,43,21.80
2009,07,29,00,44,21.80
2009,07,29,00,45,21.70
2009,07,29,00,46,21.70
2009,07,29,00,47,21.60
2009,07,29,00,48,21.60
2009,07,29,00,49,21.50
2009,07,29,00,50,21.40
2009,07,29,00,51,21.40
2009,07,29,00,52,21.40
2009,07,29,00,53,21.30
2009,07,29,00,54,21.30
2009,07,29,00,55,21.30
2009,07,29,00,56,21.30
2009,07,29,00,57,21.30
2009,07,29,00,58,21.30
2009,07,29,00,59,21.30
2009,07,29,01,00,21.30
2009,07,29,01,01,21.30
2009,07,29,01,02,21.30
2009,07,29,01,03,21.30
2009,07,29,01,04,21.30
2009,07,29,01,05,21.30
2009,07,29,01,06,21.30
2009,07,29,01,07,21.20
2009,07,29,01,08,21.20
2009,07,29,01,09,21.20
2009,07,29,01,10,21.20
2009,07,29,01,11,21.20
2009,07,29,01,12,21.20
2009,07,29,01,13,21.20
2009,07,29,01,14,21.20
2009,07,29,01,15,21.20
2009,07,29,01,16,21.20
2009,07,29,01,17,21.20
2009,07,29,01,18,21.20
2009,07,29,01,19,21.20
2009,07,29,01,20,21.20
2009,07,29,01,21,21.20
2009,07,29,01,22,21.20
2009,07,29,01,23,21.20
2009,07,29,01,24,21.20
2009,07,29,01,25,21.20
2009,07,29,01,26,21.20
2009,07,29,01,27,21.20
2009,07,29,01,28,21.20
2009,07,29,01,29,21.20
2009,07,29,01,30,21.10
2009,07,29,01,31,21.10
2009,07,29,01,32,21.10
2009,07,29,01,33,21.10
2009,07,29,01,34,21.00
2009,07,29,01,35,21.00
2009,07,29,01,36,20.90
2009,07,29,01,37,20.90
2009,07,29,01,38,20.80
2009,07,29,01,39,20.80
2009,07,29,01,40,20.80
2009,07,29,01,41,20.80
2009,07,29,01,42,20.80
2009,07,29,01,43,20.80
2009,07,29,01,44,20.70
2009,07,29,01,45,20.70
2009,07,29,01,46,20.70
2009,07,29,01,47,20.80
2009,07,29,01,48,20.80
2009,07,29,01,49,20.80
2009,07,29,01,50,20.80
2009,07,29,01,51,20.80
2009,07,29,01,52,20.80
2009,07,29,01,53,20.80
2009,07,29,01,54,20.70
2009,07,29,01,55,20.70
2009,07,29,01,56,20.70
2009,07,29,01,57,20.60
2009,07,29,01,58,20.60
2009,07,29,01,59,20.60
2009,07,29,02,00,20.60
2009,07,29,02,01,20.60
2009,07,29,02,02,20.50
2009,07,29,02,03,20.50
2009,07,29,02,04,20.50
2009,07,29,02,05,20.50
2009,07,29,02,06,20.50
2009,07,29,02,07,20.50
2009,07,29,02,08,20.50
2009,07,29,02,09,20.40
2009,07,29,02,10,20.40
2009,07,29,02,11,20.40
2009,07,29,02,12,20.40
2009,07,29,02,13,20.40
2009,07,29,02,14,20.40
2009,07,29,02,15,20.40
2009,07,29,02,16,20.40
2009,07,29,02,17,20.40
2009,07,29,02,18,20.40
2009,07,29,02,19,20.40
2009,07,29,02,20,20.40
2009,07,29,02,21,20.40
2009,07,29,02,22,20.40
2009,07,29,02,23,20.40
2009,07,29,02,24,20.40
2009,07,29,02,25,20.40
2009,07,29,02,26,20.40
2009,07,29,02,27,20.40
2009,07,29,02,28,20.40
2009,07,29,02,29,20.40
2009,07,29,02,30,20.40
2009,07,29,02,31,20.30
2009,07,29,02,32,20.30
2009,07,29,02,33,20.30
2009,07,29,02,34,20.30
2009,07,29,02,35,20.30
2009,07,29,02,36,20.30
2009,07,29,02,37,20.30
2009,07,29,02,38,20.30
2009,07,29,02,39,20.30
2009,07,29,02,40,20.30
2009,07,29,02,41,20.30
2009,07,29,02,42,20.30
2009,07,29,02,43,20.30
2009,07,29,02,44,20.30
2009,07,29,02,45,20.30
2009,07,29,02,46,20.30
2009,07,29,02,47,20.30
2009,07,29,02,48,20.30
2009,07,29,02,49,20.30
2009,07,29,02,50,20.30
2009,07,29,02,51,20.30
2009,07,29,02,52,20.30
2009,07,29,02,53,20.20
2009,07,29,02,54,20.20
2009,07,29,02,55,20.20
2009,07,29,02,56,20.20
2009,07,29,02,57,20.20
2009,07,29,02,58,20.20
2009,07,29,02,59,20.20
2009,07,29,03,00,20.20
2009,07,29,03,01,20.20
2009,07,29,03,02,20.20
2009,07,29,03,03,20.20
2009,07,29,03,04,20.10
2009,07,29,03,05,20.10
2009,07,29,03,06,20.00
2009,07,29,03,07,20.00
2009,07,29,03,08,20.00
2009,07,29,03,09,19.90
2009,07,29,03,10,19.90
2009,07,29,03,11,19.90
2009,07,29,03,12,19.90
2009,07,29,03,13,19.80
2009,07,29,03,14,19.80
2009,07,29,03,15,19.80
2009,07,29,03,16,19.80
2009,07,29,03,17,19.80
2009,07,29,03,18,19.80
2009,07,29,03,19,19.80
2009,07,29,03,20,19.80
2009,07,29,03,21,19.80
2009,07,29,03,22,19.80
2009,07,29,03,23,19.80
2009,07,29,03,24,19.80
2009,07,29,03,25,19.70
2009,07,29,03,26,19.80
2009,07,29,03,27,19.80
2009,07,29,03,28,19.80
2009,07,29,03,29,19.80
2009,07,29,03,30,19.80
2009,07,29,03,31,19.70
2009,07,29,03,32,19.70
2009,07,29,03,33,19.80
2009,07,29,03,34,19.80
2009,07,29,03,35,19.80
2009,07,29,03,36,19.80
2009,07,29,03,37,19.80
2009,07,29,03,38,19.80
2009,07,29,03,39,19.80
2009,07,29,03,40,19.80
2009,07,29,03,41,19.80
2009,07,29,03,42,19.80
2009,07,29,03,43,19.80
2009,07,29,03,44,19.80
2009,07,29,03,45,19.80
2009,07,29,03,46,19.70
2009,07,29,03,47,19.70
2009,07,29,03,48,19.60
2009,07,29,03,49,19.50
2009,07,29,03,50,19.50
2009,07,29,03,51,19.40
2009,07,29,03,52,19.40
2009,07,29,03,53,19.40
2009,07,29,03,54,19.40
2009,07,29,03,55,19.40
2009,07,29,03,56,19.40
2009,07,29,03,57,19.40
2009,07,29,03,58,19.40
2009,07,29,03,59,19.40
2009,07,29,04,00,19.40
2009,07,29,04,01,19.40
2009,07,29,04,02,19.40
2009,07,29,04,03,19.40
2009,07,29,04,04,19.40
2009,07,29,04,05,19.40
2009,07,29,04,06,19.40
2009,07,29,04,07,19.40
2009,07,29,04,08,19.30
2009,07,29,04,09,19.30
2009,07,29,04,10,19.30
2009,07,29,04,11,19.20
2009,07,29,04,12,19.10
2009,07,29,04,13,19.10
2009,07,29,04,14,19.00
2009,07,29,04,15,19.00
2009,07,29,04,16,18.90
2009,07,29,04,17,18.90
2009,07,29,04,18,18.90
2009,07,29,04,19,18.90
2009,07,29,04,20,18.80
2009,07,29,04,21,18.80
2009,07,29,04,22,18.80
2009,07,29,04,23,18.70
2009,07,29,04,24,18.70
2009,07,29,04,25,18.60
2009,07,29,04,26,18.60
2009,07,29,04,27,18.60
2009,07,29,04,28,18.50
2009,07,29,04,29,18.40
2009,07,29,04,30,18.40
2009,07,29,04,31,18.30
2009,07,29,04,32,18.30
2009,07,29,04,33,18.30
2009,07,29,04,34,18.20
2009,07,29,04,35,18.20
2009,07,29,04,36,18.20
2009,07,29,04,37,18.20
2009,07,29,04,38,18.10
2009,07,29,04,39,18.10
2009,07,29,04,40,18.10
2009,07,29,04,41,18.00
2009,07,29,04,42,18.00
2009,07,29,04,43,18.00
2009,07,29,04,44,18.00
2009,07,29,04,45,18.00
2009,07,29,04,46,18.00
2009,07,29,04,47,18.10
2009,07,29,04,48,18.10
2009,07,29,04,49,18.10
2009,07,29,04,50,18.10
2009,07,29,04,51,18.10
2009,07,29,04,52,18.10
2009,07,29,04,53,18.10
2009,07,29,04,54,18.10
2009,07,29,04,55,18.10
2009,07,29,04,56,18.10
2009,07,29,04,57,18.10
2009,07,29,04,58,18.10
2009,07,29,04,59,18.10
2009,07,29,05,00,18.00
2009,07,29,05,01,18.00
2009,07,29,05,02,18.00
2009,07,29,05,03,17.90
2009,07,29,05,04,17.90
2009,07,29,05,05,17.90
2009,07,29,05,06,17.90
2009,07,29,05,07,17.90
2009,07,29,05,08,17.90
2009,07,29,05,09,17.90
2009,07,29,05,10,18.00
2009,07,29,05,11,18.00
2009,07,29,05,12,18.00
2009,07,29,05,13,18.00
2009,07,29,05,14,18.00
2009,07,29,05,15,18.00
2009,07,29,05,16,18.00
2009,07,29,05,17,18.00
2009,07,29,05,18,18.00
2009,07,29,05,19,18.00
2009,07,29,05,20,18.00
2009,07,29,05,21,18.00
2009,07,29,05,22,18.00
2009,07,29,05,23,18.10
2009,07,29,05,24,18.10
2009,07,29,05,25,18.10
2009,07,29,05,26,18.00
2009,07,29,05,27,18.00
2009,07,29,05,28,18.00
2009,07,29,05,29,18.00
2009,07,29,05,30,18.00
2009,07,29,05,31,18.00
2009,07,29,05,32,18.00
2009,07,29,05,33,18.00
2009,07,29,05,34,18.00
2009,07,29,05,35,18.00
2009,07,29,05,36,18.00
2009,07,29,05,37,18.00
2009,07,29,05,38,18.00
2009,07,29,05,39,18.00
2009,07,29,05,40,18.00
2009,07,29,05,41,18.00
2009,07,29,05,42,18.00
2009,07,29,05,43,18.00
2009,07,29,05,44,18.00
2009,07,29,05,45,18.00
2009,07,29,05,46,18.00
2009,07,29,05,47,17.90
2009,07,29,05,48,17.90
2009,07,29,05,49,17.90
2009,07,29,05,50,17.90
2009,07,29,05,51,17.90
2009,07,29,05,52,17.90
2009,07,29,05,53,18.00
2009,07,29,05,54,18.00
2009,07,29,05,55,18.00
2009,07,29,05,56,17.90
2009,07,29,05,57,18.00
2009,07,29,05,58,17.90
2009,07,29,05,59,18.00
2009,07,29,06,00,17.90
2009,07,29,06,01,17.90
2009,07,29,06,02,17.90
2009,07,29,06,03,17.90
2009,07,29,06,04,17.90
2009,07,29,06,05,17.90
2009,07,29,06,06,17.90
2009,07,29,06,07,17.90
2009,07,29,06,08,17.90
2009,07,29,06,09,17.90
2009,07,29,06,10,17.90
2009,07,29,06,11,17.90
2009,07,29,06,12,17.90
2009,07,29,06,13,17.80
2009,07,29,06,14,17.80
2009,07,29,06,15,17.80
2009,07,29,06,16,17.90
2009,07,29,06,17,17.90
2009,07,29,06,18,17.90
2009,07,29,06,19,17.90
2009,07,29,06,20,17.90
2009,07,29,06,21,17.90
2009,07,29,06,22,17.90
2009,07,29,06,23,17.90
2009,07,29,06,24,18.00
2009,07,29,06,25,18.10
2009,07,29,06,26,18.10
2009,07,29,06,27,18.10
2009,07,29,06,28,18.10
2009,07,29,06,29,18.20
2009,07,29,06,30,18.20
2009,07,29,06,31,18.20
2009,07,29,06,32,18.30
2009,07,29,06,33,18.30
2009,07,29,06,34,18.30
2009,07,29,06,35,18.30
2009,07,29,06,36,18.30
2009,07,29,06,37,18.40
2009,07,29,06,38,18.40
2009,07,29,06,39,18.40
2009,07,29,06,40,18.40
2009,07,29,06,41,18.40
2009,07,29,06,42,18.40
2009,07,29,06,43,18.40
2009,07,29,06,44,18.40
2009,07,29,06,45,18.50
2009,07,29,06,46,18.50
2009,07,29,06,47,18.50
2009,07,29,06,48,18.60
2009,07,29,06,49,18.60
2009,07,29,06,50,18.60
2009,07,29,06,51,18.60
2009,07,29,06,52,18.70
2009,07,29,06,53,18.70
2009,07,29,06,54,18.80
2009,07,29,06,55,18.80
2009,07,29,06,56,18.80
2009,07,29,06,57,18.90
2009,07,29,06,58,18.90
2009,07,29,06,59,19.00
2009,07,29,07,00,19.00
2009,07,29,07,01,19.00
2009,07,29,07,02,19.00
2009,07,29,07,03,19.10
2009,07,29,07,04,19.10
2009,07,29,07,05,19.10
2009,07,29,07,06,19.10
2009,07,29,07,07,19.10
2009,07,29,07,08,19.20
2009,07,29,07,09,19.20
2009,07,29,07,10,19.30
2009,07,29,07,11,19.30
2009,07,29,07,12,19.40
2009,07,29,07,13,19.50
2009,07,29,07,14,19.60
2009,07,29,07,15,19.70
2009,07,29,07,16,19.80
2009,07,29,07,17,19.90
2009,07,29,07,18,20.10
2009,07,29,07,19,20.20
2009,07,29,07,20,20.30
2009,07,29,07,21,20.40
2009,07,29,07,22,20.50
2009,07,29,07,23,20.60
2009,07,29,07,24,20.70
2009,07,29,07,25,20.80
2009,07,29,07,26,20.90
2009,07,29,07,27,21.00
2009,07,29,07,28,21.10
2009,07,29,07,29,21.20
2009,07,29,07,30,21.30
2009,07,29,07,31,21.40
2009,07,29,07,32,21.50
2009,07,29,07,33,21.60
2009,07,29,07,34,21.70
2009,07,29,07,35,21.80
2009,07,29,07,36,21.90
2009,07,29,07,37,22.10
2009,07,29,07,38,22.20
2009,07,29,07,39,22.30
2009,07,29,07,40,22.40
2009,07,29,07,41,22.50
2009,07,29,07,42,22.60
2009,07,29,07,43,22.70
2009,07,29,07,44,22.80
2009,07,29,07,45,22.80
2009,07,29,07,46,22.90
2009,07,29,07,47,23.00
2009,07,29,07,48,23.10
2009,07,29,07,49,23.10
2009,07,29,07,50,23.20
2009,07,29,07,51,23.30
2009,07,29,07,52,23.30
2009,07,29,07,53,23.40
2009,07,29,07,54,23.50
2009,07,29,07,55,23.50
2009,07,29,07,56,23.60
2009,07,29,07,57,23.70
2009,07,29,07,58,23.70
2009,07,29,07,59,23.80
2009,07,29,08,00,23.80
2009,07,29,08,01,23.90
2009,07,29,08,02,23.90
2009,07,29,08,03,24.00
2009,07,29,08,04,24.10
2009,07,29,08,05,24.10
2009,07,29,08,06,24.20
2009,07,29,08,07,24.30
2009,07,29,08,08,24.30
2009,07,29,08,09,24.40
2009,07,29,08,10,24.40
2009,07,29,08,11,24.50
2009,07,29,08,12,24.60
2009,07,29,08,13,24.60
2009,07,29,08,14,24.60
2009,07,29,08,15,24.70
2009,07,29,08,16,24.60
2009,07,29,08,17,24.60
2009,07,29,08,18,24.60
2009,07,29,08,19,24.60
2009,07,29,08,20,24.60
2009,07,29,08,21,24.60
2009,07,29,08,22,24.60
2009,07,29,08,23,24.50
2009,07,29,08,24,24.50
2009,07,29,08,25,24.50
2009,07,29,08,26,24.50
2009,07,29,08,27,24.50
2009,07,29,08,28,24.50
2009,07,29,08,29,24.50
2009,07,29,08,30,24.50
2009,07,29,08,31,24.50
2009,07,29,08,32,24.60
2009,07,29,08,33,24.60
2009,07,29,08,34,24.60
2009,07,29,08,35,24.60
2009,07,29,08,36,24.60
2009,07,29,08,37,24.70
2009,07,29,08,38,24.70
2009,07,29,08,39,24.80
2009,07,29,08,40,24.80
2009,07,29,08,41,24.80
2009,07,29,08,42,24.90
2009,07,29,08,43,24.90
2009,07,29,08,44,24.90
2009,07,29,08,45,25.00
2009,07,29,08,46,25.00
2009,07,29,08,47,25.10
2009,07,29,08,48,25.10
2009,07,29,08,49,25.20
2009,07,29,08,50,25.20
2009,07,29,08,51,25.20
2009,07,29,08,52,25.20
2009,07,29,08,53,25.30
2009,07,29,08,54,25.30
2009,07,29,08,55,25.30
2009,07,29,08,56,25.40
2009,07,29,08,57,25.40
2009,07,29,08,58,25.40
2009,07,29,08,59,25.50
2009,07,29,09,00,25.50
2009,07,29,09,01,25.50
2009,07,29,09,02,25.60
2009,07,29,09,03,25.70
2009,07,29,09,04,25.70
2009,07,29,09,05,25.80
2009,07,29,09,06,25.90
2009,07,29,09,07,25.90
2009,07,29,09,08,25.90
2009,07,29,09,09,25.90
2009,07,29,09,10,25.90
2009,07,29,09,11,25.80
2009,07,29,09,12,25.80
2009,07,29,09,13,25.90
2009,07,29,09,14,25.90
2009,07,29,09,15,25.90
2009,07,29,09,16,25.90
2009,07,29,09,17,25.90
2009,07,29,09,18,26.00
2009,07,29,09,19,26.00
2009,07,29,09,20,26.10
2009,07,29,09,21,26.10
2009,07,29,09,22,26.10
2009,07,29,09,23,26.20
2009,07,29,09,24,26.20
2009,07,29,09,25,26.20
2009,07,29,09,26,26.30
2009,07,29,09,27,26.40
2009,07,29,09,28,26.40
2009,07,29,09,29,26.50
2009,07,29,09,30,26.60
2009,07,29,09,31,26.60
2009,07,29,09,32,26.70
2009,07,29,09,33,26.80
2009,07,29,09,34,26.80
2009,07,29,09,35,26.70
2009,07,29,09,36,26.70
2009,07,29,09,37,26.70
2009,07,29,09,38,26.70
2009,07,29,09,39,26.70
2009,07,29,09,40,26.70
2009,07,29,09,41,26.70
2009,07,29,09,42,26.70
2009,07,29,09,43,26.70
2009,07,29,09,44,26.80
2009,07,29,09,45,26.80
2009,07,29,09,46,26.80
2009,07,29,09,47,26.90
2009,07,29,09,48,26.90
2009,07,29,09,49,27.00
2009,07,29,09,50,27.10
2009,07,29,09,51,27.10
2009,07,29,09,52,27.10
2009,07,29,09,53,27.10
2009,07,29,09,54,27.10
2009,07,29,09,55,27.10
2009,07,29,09,56,27.10
2009,07,29,09,57,27.10
2009,07,29,09,58,27.10
2009,07,29,09,59,27.20
2009,07,29,10,00,27.20
2009,07,29,10,01,27.30
2009,07,29,10,02,27.30
2009,07,29,10,03,27.40
2009,07,29,10,04,27.50
2009,07,29,10,05,27.50
2009,07,29,10,06,27.50
2009,07,29,10,07,27.50
2009,07,29,10,08,27.50
2009,07,29,10,09,27.60
2009,07,29,10,10,27.60
2009,07,29,10,11,27.70
2009,07,29,10,12,27.80
2009,07,29,10,13,27.80
2009,07,29,10,14,27.90
2009,07,29,10,15,28.00
2009,07,29,10,16,28.00
2009,07,29,10,17,28.10
2009,07,29,10,18,28.10
2009,07,29,10,19,28.20
2009,07,29,10,20,28.20
2009,07,29,10,21,28.20
2009,07,29,10,22,28.30
2009,07,29,10,23,28.30
2009,07,29,10,24,28.30
2009,07,29,10,25,28.30
2009,07,29,10,26,28.30
2009,07,29,10,27,28.30
2009,07,29,10,28,28.30
2009,07,29,10,29,28.30
2009,07,29,10,30,28.30
2009,07,29,10,31,28.30
2009,07,29,10,32,28.40
2009,07,29,10,33,28.40
2009,07,29,10,34,28.50
2009,07,29,10,35,28.60
2009,07,29,10,36,28.60
2009,07,29,10,37,28.70
2009,07,29,10,38,28.70
2009,07,29,10,39,28.70
2009,07,29,10,40,28.70
2009,07,29,10,41,28.70
2009,07,29,10,42,28.70
2009,07,29,10,43,28.70
2009,07,29,10,44,28.70
2009,07,29,10,45,28.70
2009,07,29,10,46,28.70
2009,07,29,10,47,28.70
2009,07,29,10,48,28.70
2009,07,29,10,49,28.70
2009,07,29,10,50,28.70
2009,07,29,10,51,28.70
2009,07,29,10,52,28.70
2009,07,29,10,53,28.80
2009,07,29,10,54,28.80
2009,07,29,10,55,28.80
2009,07,29,10,56,28.80
2009,07,29,10,57,28.80
2009,07,29,10,58,28.80
2009,07,29,10,59,28.80
2009,07,29,11,00,28.80
2009,07,29,11,01,28.90
2009,07,29,11,02,28.90
2009,07,29,11,03,28.90
2009,07,29,11,04,29.00
2009,07,29,11,05,29.00
2009,07,29,11,06,29.10
2009,07,29,11,07,29.10
2009,07,29,11,08,29.10
2009,07,29,11,09,29.10
2009,07,29,11,10,29.10
2009,07,29,11,11,29.20
2009,07,29,11,12,29.20
2009,07,29,11,13,29.30
2009,07,29,11,14,29.30
2009,07,29,11,15,29.40
2009,07,29,11,16,29.40
2009,07,29,11,17,29.40
2009,07,29,11,18,29.30
2009,07,29,11,19,29.20
2009,07,29,11,20,29.20
2009,07,29,11,21,29.10
2009,07,29,11,22,29.10
2009,07,29,11,23,29.10
2009,07,29,11,24,29.10
2009,07,29,11,25,29.10
2009,07,29,11,26,29.10
2009,07,29,11,27,29.10
2009,07,29,11,28,29.10
2009,07,29,11,29,29.10
2009,07,29,11,30,29.10
2009,07,29,11,31,29.20
2009,07,29,11,32,29.20
2009,07,29,11,33,29.10
2009,07,29,11,34,29.10
2009,07,29,11,35,29.10
2009,07,29,11,36,29.10
2009,07,29,11,37,29.10
2009,07,29,11,38,29.10
2009,07,29,11,39,29.10
2009,07,29,11,40,29.10
2009,07,29,11,41,29.10
2009,07,29,11,42,29.10
2009,07,29,11,43,29.20
2009,07,29,11,44,29.20
2009,07,29,11,45,29.20
2009,07,29,11,46,29.20
2009,07,29,11,47,29.20
2009,07,29,11,48,29.30
2009,07,29,11,49,29.30
2009,07,29,11,50,29.40
2009,07,29,11,51,29.50
2009,07,29,11,52,29.60
2009,07,29,11,53,29.70
2009,07,29,11,54,29.80
2009,07,29,11,55,29.80
2009,07,29,11,56,29.90
2009,07,29,11,57,29.90
2009,07,29,11,58,30.00
2009,07,29,11,59,30.10
2009,07,29,12,00,30.10
2009,07,29,12,01,30.00
2009,07,29,12,02,30.00
2009,07,29,12,03,29.90
2009,07,29,12,04,29.90
2009,07,29,12,05,29.90
2009,07,29,12,06,29.80
2009,07,29,12,07,29.70
2009,07,29,12,08,29.70
2009,07,29,12,09,29.80
2009,07,29,12,10,29.80
2009,07,29,12,11,29.90
2009,07,29,12,12,29.90
2009,07,29,12,13,29.90
2009,07,29,12,14,29.90
2009,07,29,12,15,29.90
2009,07,29,12,16,29.90
2009,07,29,12,17,29.90
2009,07,29,12,18,30.00
2009,07,29,12,19,30.10
2009,07,29,12,20,30.20
2009,07,29,12,21,30.30
2009,07,29,12,22,30.40
2009,07,29,12,23,30.40
2009,07,29,12,24,30.50
2009,07,29,12,25,30.60
2009,07,29,12,26,30.60
2009,07,29,12,27,30.60
2009,07,29,12,28,30.60
2009,07,29,12,29,30.60
2009,07,29,12,30,30.60
2009,07,29,12,31,30.60
2009,07,29,12,32,30.60
2009,07,29,12,33,30.60
2009,07,29,12,34,30.60
2009,07,29,12,35,30.60
2009,07,29,12,36,30.60
2009,07,29,12,37,30.60
2009,07,29,12,38,30.60
2009,07,29,12,39,30.60
2009,07,29,12,40,30.70
2009,07,29,12,41,30.80
2009,07,29,12,42,31.00
2009,07,29,12,43,31.10
2009,07,29,12,44,31.30
2009,07,29,12,45,31.40
2009,07,29,12,46,31.40
2009,07,29,12,47,31.50
2009,07,29,12,48,31.60
2009,07,29,12,49,31.60
2009,07,29,12,50,31.70
2009,07,29,12,51,31.80
2009,07,29,12,52,31.90
2009,07,29,12,53,32.00
2009,07,29,12,54,32.00
2009,07,29,12,55,32.10
2009,07,29,12,56,32.10
2009,07,29,12,57,32.10
2009,07,29,12,58,32.10
2009,07,29,12,59,32.10
2009,07,29,13,00,32.10
2009,07,29,13,01,32.10
2009,07,29,13,02,32.10
2009,07,29,13,03,32.10
2009,07,29,13,04,32.10
2009,07,29,13,05,32.10
2009,07,29,13,06,32.10
2009,07,29,13,07,32.10
2009,07,29,13,08,32.10
2009,07,29,13,09,32.10
2009,07,29,13,10,32.10
2009,07,29,13,11,32.10
2009,07,29,13,12,32.20
2009,07,29,13,13,32.20
2009,07,29,13,14,32.20
2009,07,29,13,15,32.30
2009,07,29,13,16,32.30
2009,07,29,13,17,32.30
2009,07,29,13,18,32.40
2009,07,29,13,19,32.50
2009,07,29,13,20,32.60
2009,07,29,13,21,32.70
2009,07,29,13,22,32.80
2009,07,29,13,23,32.80
2009,07,29,13,24,32.80
2009,07,29,13,25,32.90
2009,07,29,13,26,33.10
2009,07,29,13,27,33.20
2009,07,29,13,28,33.30
2009,07,29,13,29,33.30
2009,07,29,13,30,33.30
2009,07,29,13,31,33.30
2009,07,29,13,32,33.20
2009,07,29,13,33,33.20
2009,07,29,13,34,33.20
2009,07,29,13,35,33.10
2009,07,29,13,36,33.00
2009,07,29,13,37,33.00
2009,07,29,13,38,32.90
2009,07,29,13,39,32.80
2009,07,29,13,40,32.70
2009,07,29,13,41,32.60
2009,07,29,13,42,32.50
2009,07,29,13,43,32.40
2009,07,29,13,44,32.30
2009,07,29,13,45,32.10
2009,07,29,13,46,32.10
2009,07,29,13,47,32.00
2009,07,29,13,48,32.10
2009,07,29,13,49,32.10
2009,07,29,13,50,32.20
2009,07,29,13,51,32.30
2009,07,29,13,52,32.30
2009,07,29,13,53,32.30
2009,07,29,13,54,32.30
2009,07,29,13,55,32.30
2009,07,29,13,56,32.30
2009,07,29,13,57,32.30
2009,07,29,13,58,32.40
2009,07,29,13,59,32.50
2009,07,29,14,00,32.50
2009,07,29,14,01,32.60
2009,07,29,14,02,32.60
2009,07,29,14,03,32.70
2009,07,29,14,04,32.70
2009,07,29,14,05,32.80
2009,07,29,14,06,32.80
2009,07,29,14,07,32.90
2009,07,29,14,08,32.90
2009,07,29,14,09,33.00
2009,07,29,14,10,33.10
2009,07,29,14,11,33.20
2009,07,29,14,12,33.20
2009,07,29,14,13,33.30
2009,07,29,14,14,33.40
2009,07,29,14,15,33.40
2009,07,29,14,16,33.50
2009,07,29,14,17,33.50
2009,07,29,14,18,33.60
2009,07,29,14,19,33.60
2009,07,29,14,20,33.60
2009,07,29,14,21,33.60
2009,07,29,14,22,33.60
2009,07,29,14,23,33.60
2009,07,29,14,24,33.60
2009,07,29,14,25,33.70
2009,07,29,14,26,33.80
2009,07,29,14,27,33.80
2009,07,29,14,28,33.90
2009,07,29,14,29,33.90
2009,07,29,14,30,34.00
2009,07,29,14,31,34.10
2009,07,29,14,32,34.20
2009,07,29,14,33,34.20
2009,07,29,14,34,34.30
2009,07,29,14,35,34.30
2009,07,29,14,36,34.30
2009,07,29,14,37,34.10
2009,07,29,14,38,34.00
2009,07,29,14,39,33.90
2009,07,29,14,40,33.90
2009,07,29,14,41,33.80
2009,07,29,14,42,33.80
2009,07,29,14,43,33.80
2009,07,29,14,44,33.80
2009,07,29,14,45,33.70
2009,07,29,14,46,33.60
2009,07,29,14,47,33.50
2009,07,29,14,48,33.40
2009,07,29,14,49,33.40
2009,07,29,14,50,33.40
2009,07,29,14,51,33.50
2009,07,29,14,52,33.40
2009,07,29,14,53,33.40
2009,07,29,14,54,33.30
2009,07,29,14,55,33.30
2009,07,29,14,56,33.40
2009,07,29,14,57,33.50
2009,07,29,14,58,33.50
2009,07,29,14,59,33.60
2009,07,29,15,00,33.60
2009,07,29,15,01,33.60
2009,07,29,15,02,33.70
2009,07,29,15,03,33.80
2009,07,29,15,04,33.90
2009,07,29,15,05,34.00
2009,07,29,15,06,34.20
2009,07,29,15,07,34.30
2009,07,29,15,08,34.50
2009,07,29,15,09,34.50
2009,07,29,15,10,34.60
2009,07,29,15,11,34.60
2009,07,29,15,12,34.60
2009,07,29,15,13,34.60
2009,07,29,15,14,34.60
2009,07,29,15,15,34.40
2009,07,29,15,16,34.30
2009,07,29,15,17,34.20
2009,07,29,15,18,34.20
2009,07,29,15,19,34.10
2009,07,29,15,20,34.00
2009,07,29,15,21,33.90
2009,07,29,15,22,33.80
2009,07,29,15,23,33.80
2009,07,29,15,24,33.80
2009,07,29,15,25,33.80
2009,07,29,15,26,33.90
2009,07,29,15,27,34.00
2009,07,29,15,28,34.10
2009,07,29,15,29,34.20
2009,07,29,15,30,34.30
2009,07,29,15,31,34.40
2009,07,29,15,32,34.50
2009,07,29,15,33,34.60
2009,07,29,15,34,34.70
2009,07,29,15,35,34.80
2009,07,29,15,36,34.80
2009,07,29,15,37,34.80
2009,07,29,15,38,34.90
2009,07,29,15,39,34.90
2009,07,29,15,40,35.00
2009,07,29,15,41,35.00
2009,07,29,15,42,35.10
2009,07,29,15,43,35.20
2009,07,29,15,44,35.30
2009,07,29,15,45,35.40
2009,07,29,15,46,35.50
2009,07,29,15,47,35.60
2009,07,29,15,48,35.60
2009,07,29,15,49,35.70
2009,07,29,15,50,35.70
2009,07,29,15,51,35.70
2009,07,29,15,52,35.80
2009,07,29,15,53,35.80
2009,07,29,15,54,35.90
2009,07,29,15,55,36.00
2009,07,29,15,56,36.10
2009,07,29,15,57,36.10
2009,07,29,15,58,36.20
2009,07,29,15,59,36.20
2009,07,29,16,00,36.30
2009,07,29,16,01,36.30
2009,07,29,16,02,36.30
2009,07,29,16,03,36.30
2009,07,29,16,04,36.20
2009,07,29,16,05,36.10
2009,07,29,16,06,35.90
2009,07,29,16,07,35.70
2009,07,29,16,08,35.40
2009,07,29,16,09,35.00
2009,07,29,16,10,34.70
2009,07,29,16,11,34.30
2009,07,29,16,12,34.10
2009,07,29,16,13,33.80
2009,07,29,16,14,33.60
2009,07,29,16,15,33.50
2009,07,29,16,16,33.30
2009,07,29,16,17,33.20
2009,07,29,16,18,33.10
2009,07,29,16,19,33.10
2009,07,29,16,20,33.00
2009,07,29,16,21,33.00
2009,07,29,16,22,33.10
2009,07,29,16,23,33.10
2009,07,29,16,24,33.10
2009,07,29,16,25,33.20
2009,07,29,16,26,33.20
2009,07,29,16,27,33.20
2009,07,29,16,28,33.30
2009,07,29,16,29,33.40
2009,07,29,16,30,33.40
2009,07,29,16,31,33.50
2009,07,29,16,32,33.60
2009,07,29,16,33,33.60
2009,07,29,16,34,33.70
2009,07,29,16,35,33.70
2009,07,29,16,36,33.80
2009,07,29,16,37,33.80
2009,07,29,16,38,33.80
2009,07,29,16,39,33.90
2009,07,29,16,40,33.90
2009,07,29,16,41,33.90
2009,07,29,16,42,33.90
2009,07,29,16,43,33.90
2009,07,29,16,44,33.90
2009,07,29,16,45,33.90
2009,07,29,16,46,33.90
2009,07,29,16,47,33.90
2009,07,29,16,48,33.90
2009,07,29,16,49,33.90
2009,07,29,16,50,33.90
2009,07,29,16,51,33.90
2009,07,29,16,52,33.90
2009,07,29,16,53,34.00
2009,07,29,16,54,34.00
2009,07,29,16,55,34.10
2009,07,29,16,56,34.10
2009,07,29,16,57,34.10
2009,07,29,16,58,34.20
2009,07,29,16,59,34.20
2009,07,29,17,00,34.20
2009,07,29,17,01,34.30
2009,07,29,17,02,34.30
2009,07,29,17,03,34.30
2009,07,29,17,04,34.20
2009,07,29,17,05,34.20
2009,07,29,17,06,34.00
2009,07,29,17,07,33.90
2009,07,29,17,08,33.70
2009,07,29,17,09,33.60
2009,07,29,17,10,33.40
2009,07,29,17,11,33.30
2009,07,29,17,12,33.10
2009,07,29,17,13,32.90
2009,07,29,17,14,32.80
2009,07,29,17,15,32.60
2009,07,29,17,16,32.40
2009,07,29,17,17,32.20
2009,07,29,17,18,31.90
2009,07,29,17,19,31.70